COSMOS 1579 COOLANT, 28274

Orbit data source: Space-Track

COSMOS 1579 COOLANT, 28274 is space debris in LEO originally from a launch on Fri, 29 Jun 1984 UTC launched from the Tyuratam Missile And Space Complex (TTMTR). Debris objects in space refer to the collection of defunct objects orbiting the Earth. Examples of debris include non-operational satellites, rocket bodies, and fragments generated from explosions, collisions, or faulty payload assembly.

Loading next visibility...
COSMOS 1579 COOLANT details
Identifier
28274, 1984-069AK
Orbit
LEO
Last TLE update2 days ago
Origin
Flag of CISVMF (CIS)
ManufacturerUnknown
MissionSpacecraft
Bus & MotorUnknown
MassUnknown
Launch date (UTC)
1984-06-29 (40 years ago)
Launch vehicleUnknown
Launch site
Tyuratam Missile And Space Complex (TTMTR)
Object type
Payload
Rocket body
Debris
Shape & HBRUnknown
Radar Cross SectionSmall (<0.1 m²)

Expand to show TLE details & history

TLE from 2 days ago
0 COSMOS 1579 COOLANT
1 28274U 84069AK  24359.27235823  .00000722  00000-0  62242-3 0  9995
2 28274  65.0484 197.0136 0049101 203.4324 156.4504 13.92597938124033
Epoch: 2024-12-24T06:32Z
Definitive object data (Epoch: 2024-12-24T06:32:11.751Z)
Latitude0.00002°
Longitude5.68181°
Altitude954.36 km
Speed7.358 km/s
True Right ascension13h 08m 03s
True Declination0° 00' 00"
Sunlit
Object was in daylight at TLE epoch
Visualization TLE readout
Latitude-29.29273°
Longitude-15.56414°
Altitude949.913 km
Speed7.366 km/s
Apparent Right ascension08h 23m 35s
Apparent Declination-59° 58' 05"
Sunlit
Object is in daylight
Visualization observer readout
Local Sidereal Time14:37:19
Azimuth217.769° SW
Elevation-35.346°
Doppler factor1
Orbital elements
Apogee altitude953.964 km
Perigee altitude882.313 km
Semi-major axis7,296.276 km
Eccentricity0.0049101
Inclination65.0484°
RAAN197.0136°
Arg. of periapsis203.4324°
True anomaly156.67395°
Mean anomaly156.4504°
Eccentric anomaly156.5623°
Mean motion3.4825 °/min
BSTAR0.00062242
Orbital period103.37 mins
Loading maneuver chart data...

COSMOS 1579 COOLANT Visibility forecast

Observer location: undefined°, undefined

Span
Click to sort rows by Start time (UTC) header in descending order
Start Az.
Max El. time (UTC)
Max El. Az.
Max El.
End time (UTC)
End Az.
11 mins2024-12-26 15:33:20.839Z236.877° WSW2024-12-26 15:39:20.839Z310.765° NW34.981°2024-12-26 15:44:20.839Z17.368° NNE
11 mins2024-12-26 22:50:20.839Z341.411° N2024-12-26 22:55:20.839Z39.505° NE33.227°2024-12-26 23:01:20.839Z120.59° SE
8 mins2024-12-27 00:38:20.839Z301.719° NW2024-12-27 00:42:20.839Z244.687° WSW28.477°2024-12-27 00:46:20.839Z192.554° SSW
10 mins2024-12-27 13:56:20.839Z183.203° SSW2024-12-27 14:01:20.839Z108.556° ESE36.812°2024-12-27 14:06:20.839Z44.524° NE
|